sat.trackr.live / text

‹ back to catalog

STARLINK-5342

NORAD 56516 · 2023-065P

PAYLOAD ACTIVE UNKNOWN

§ Identity

Operator
Country
US
Launch date
2023-05-14
Launch site
AFETR
Launch vehicle
Mass (kg)
RCS (m²)

Purposes: comms

External: N2YO · Heavens-Above · Gunter

§ Orbital elements

Epoch: 2026-09-20T03:50:49.290144Z

Period
94.27 min
Inclination
43.0020°
Eccentricity
0.0001071
Mean motion
15.27581427 rev/d
Perigee alt
482.3 km
Apogee alt
483.8 km
Semi-major
6,861.2 km
B*
-2.6005e-5
RAAN
194.0330°
Arg perigee
254.0005°
Mean anomaly
106.0729°
Rev number
18,634

§ Raw data

STARLINK-53421 56516U 23065P   26263.16029271 -.00000978  00000+0 -26005-4 0  99982 56516  43.0020 194.0330 0001071 254.0005 106.0729 15.27581427186348

JSON: /api/v1/satellites/56516 · /tle

For live sub-satellite position, see the globe view (requires WebGL).

§ Visibility from observer

Set your observer location to see the next 7 days of passes ≥ 10°. The values pass through the URL so the page stays shareable.

No JS? Fill the form by hand. The geolocation button needs JavaScript.